Погода в Рыбинке

Россия / Волгоградская область     49°59′31″N   44°46′34″E
темп.,
°C
ветер,
м/с
пор.,
м/с
влажн.,
%
обл.,
%
осадки,
мм/ч
давл.,
гПа
погр.,
м
24 сентября, пт
пт2400:00+8сз3391100 0.0 101250
03:00+7с1193100 0.0 101310
06:00+7ссз3393100 0.0 101242
09:00+10ссв2375100 0.0 1012291
12:00+12всв2166100 0.0 1012584
15:00+13ссз1160100 0.0 1011683
18:00+11в1166100 0.0 101110
21:00+9ююв22765 0.0 101111
25 сентября, сб
сб2500:00+8ююз22785 0.0 101012
03:00+8ю227892 0.0 101022
06:00+8ю2286100 0.0 100927
09:00+13ююз3457100 0.0 1010390
12:00+16ю455296 0.0 10091472
15:00+13ю4674100 0.1 1010543
18:00+11ююв2385100 0.0 1010157
21:00+11зюз1192100 0.1 101114
26 сентября, вс
вс2600:00+10зсз2393100 0.0 101150
03:00+10сз4789100 0.4 1011408
06:00+10з469099 0.1 1012288
09:00+12з45697 0.1 1011625
12:00+14зюз6763100 0.1 1010823
15:00+11зюз5879100 1.0 1009637
18:00+10юз4891100 3.9 1007629
21:00+11з379185 4.6 1006345
27 сентября, пн
пн2700:00+11зсз5986100 1.4 1005415
03:00+9зсз6119457 2.0 1006417
06:00+9сз7108888 0.1 1008606
09:00+9сз6886100 0.1 1009629
12:00+12сз457558 0.1 1011732
15:00+12с687399 0.4 1012757
18:00+12ссз597890 0.4 1014416
21:00+9ссз49895 0.4 1016199
28 сентября, вт
вт2800:00+8ссз48938 0.0 1017162
03:00+7с3795100 0.0 1019148
06:00+8св5886100 0.0 1021514
09:00+8св587174 0.0 1023680
12:00+12всв565068 0.0 10241267
15:00+13св454425 0.0 10241605
18:00+10св35535 0.0 102677
21:00+8св34575 0.0 102756